sat.trackr.live / text

‹ back to catalog

GPS BIII-5 (PRN 11)

NORAD 48859 · 2021-054A

PAYLOAD ACTIVE UNKNOWN

§ Identity

Operator
Country
US
Launch date
2021-06-17
Launch site
AFETR
Launch vehicle
Mass (kg)
RCS (m²)

Purposes: nav

External: N2YO · Heavens-Above · Gunter

§ Orbital elements

Epoch: 2026-09-19T19:08:52.166400Z

Period
717.98 min
Inclination
55.1223°
Eccentricity
0.0028669
Mean motion
2.00563585 rev/d
Perigee alt
20,106.1 km
Apogee alt
20,258.4 km
Semi-major
26,560.3 km
B*
0.0000e+0
RAAN
328.6531°
Arg perigee
230.9161°
Mean anomaly
171.8553°
Rev number
3,865

§ Raw data

GPS BIII-5  (PRN 11)1 48859U 21054A   26262.79782600 -.00000082  00000+0  00000+0 0  99922 48859  55.1223 328.6531 0028669 230.9161 171.8553  2.00563585 38651

JSON: /api/v1/satellites/48859 · /tle

For live sub-satellite position, see the globe view (requires WebGL).

§ Visibility from observer

Set your observer location to see the next 7 days of passes ≥ 10°. The values pass through the URL so the page stays shareable.

No JS? Fill the form by hand. The geolocation button needs JavaScript.